Location: Ferques
(50.8300°N, 1.7599°E)
Time: 07:21:37
(UTC+00:00)

NOSS 7 (H) - Pass Details

Date: 19 May 2025
Orbit: 362 x 1534 km, 63.3° (Epoch: 18 June)

Event Time Altitude Azimuth Distance (km) Brightness Sun altitude
Rises 20:52:19 0° 316° (NW) 2,215 10.4 -9.2°
Reaches altitude 10° 20:54:16 10° 317° (NW) 1,360 8.5 -9.4°
Maximum altitude 20:57:10 81° 44° (NE) 390 4.1 -9.7°
Enters shadow 20:59:40 15° 133° (SE) 1,201 5.9 -10.0°
